Time,TemperatureF,DewpointF,PressureIn,WindDirection,WindDirectionDegrees,WindSpeedMPH,WindSpeedGustMPH,Humidity,HourlyPrecipIn,Conditions,Clouds,dailyrainin,SoftwareType,DateUTC
2013-05-10 00:12:00,65.1,56.0,29.78,SSW,192,0.0,1.0,73,0.00,,,0.03,weatherlink.com 1.10,2013-05-10 05:12:00,
2013-05-10 00:27:00,64.2,56.0,29.79,SSW,192,0.0,1.0,75,0.00,,,0.03,weatherlink.com 1.10,2013-05-10 05:27:00,
2013-05-10 00:42:00,63.6,57.0,29.80,SSW,192,0.0,1.0,78,0.00,,,0.03,weatherlink.com 1.10,2013-05-10 05:42:00,
2013-05-10 00:57:00,63.5,57.0,29.80,SW,232,0.0,2.0,79,0.00,,,0.03,weatherlink.com 1.10,2013-05-10 05:57:00,
2013-05-10 01:12:00,63.1,57.0,29.78,SW,232,1.0,3.0,79,0.00,,,0.03,weatherlink.com 1.10,2013-05-10 06:12:00,
2013-05-10 01:27:00,62.9,57.0,29.80,WSW,242,0.0,5.0,82,0.00,,,0.03,weatherlink.com 1.10,2013-05-10 06:27:00,
2013-05-10 01:42:00,63.5,57.0,29.78,WSW,242,1.0,5.0,80,0.00,,,0.03,weatherlink.com 1.10,2013-05-10 06:42:00,
2013-05-10 01:57:00,63.9,58.0,29.78,WSW,242,0.0,1.0,81,0.00,,,0.03,weatherlink.com 1.10,2013-05-10 06:57:00,
2013-05-10 02:12:00,63.4,58.0,29.78,North,355,4.0,5.0,82,0.00,,,0.03,weatherlink.com 1.10,2013-05-10 07:12:00,
2013-05-10 02:27:00,62.5,58.0,29.79,NNE,12,0.0,8.0,86,0.00,,,0.03,weatherlink.com 1.10,2013-05-10 07:27:00,
2013-05-10 02:42:00,62.4,58.0,29.76,NNE,13,0.0,4.0,86,0.00,,,0.03,weatherlink.com 1.10,2013-05-10 07:42:00,
2013-05-10 02:57:00,62.4,59.0,29.78,NNE,12,0.0,1.0,87,0.00,,,0.03,weatherlink.com 1.10,2013-05-10 07:57:00,
2013-05-10 03:12:00,62.4,59.0,29.79,NNE,13,0.0,2.0,87,0.00,,,0.03,weatherlink.com 1.10,2013-05-10 08:12:00,
2013-05-10 03:27:00,62.2,59.0,29.80,NNE,12,0.0,0.0,88,0.00,,,0.03,weatherlink.com 1.10,2013-05-10 08:27:00,
2013-05-10 03:42:00,62.1,59.0,29.80,NNE,13,1.0,2.0,88,0.00,,,0.03,weatherlink.com 1.10,2013-05-10 08:42:00,
2013-05-10 03:57:00,63.1,59.0,29.83,West,264,0.0,10.0,87,0.00,,,0.03,weatherlink.com 1.10,2013-05-10 08:57:00,
2013-05-10 04:12:00,63.3,60.0,29.86,West,264,1.0,2.0,88,0.02,,,0.05,weatherlink.com 1.10,2013-05-10 09:12:00,
2013-05-10 04:27:00,62.5,60.0,29.87,North,355,0.0,5.0,90,0.03,,,0.06,weatherlink.com 1.10,2013-05-10 09:27:00,
2013-05-10 04:42:00,61.9,60.0,29.87,North,355,0.0,3.0,92,0.04,,,0.07,weatherlink.com 1.10,2013-05-10 09:42:00,
2013-05-10 04:57:00,61.8,60.0,29.84,NNE,16,2.0,3.0,93,0.05,,,0.08,weatherlink.com 1.10,2013-05-10 09:57:00,
2013-05-10 05:12:00,61.8,60.0,29.84,NE,53,0.0,1.0,93,0.04,,,0.09,weatherlink.com 1.10,2013-05-10 10:12:00,
2013-05-10 05:27:00,61.7,60.0,29.85,NE,53,0.0,1.0,94,0.03,,,0.09,weatherlink.com 1.10,2013-05-10 10:27:00,
2013-05-10 05:35:00,-999.0,-99.9,0.00,North,-999,-999.0,-999.0,-999,0.00,,,0.00,weatherlink.com 1.10,2013-05-10 10:35:00,
2013-05-10 05:47:00,-999.0,-99.9,29.88,North,-999,-999.0,-999.0,-999,0.00,,,0.00,weatherlink.com 1.10,2013-05-10 10:47:00,
2013-05-10 06:02:00,61.9,61.0,29.91,NE,53,0.0,1.0,95,0.01,,,0.01,weatherlink.com 1.10,2013-05-10 11:02:00,
2013-05-10 06:17:00,62.3,61.0,29.95,NE,53,0.0,4.0,95,0.04,,,0.04,weatherlink.com 1.10,2013-05-10 11:17:00,
2013-05-10 06:32:00,62.4,61.0,29.96,WNW,298,1.0,7.0,95,0.07,,,0.01,weatherlink.com 1.10,2013-05-10 11:32:00,
2013-05-10 06:47:00,62.3,61.0,29.96,NW,311,0.0,7.0,95,0.11,,,0.05,weatherlink.com 1.10,2013-05-10 11:47:00,
2013-05-10 07:02:00,62.1,61.0,29.92,NNE,12,2.0,8.0,95,0.16,,,0.11,weatherlink.com 1.10,2013-05-10 12:02:00,
2013-05-10 07:17:00,61.7,60.0,29.84,East,101,5.0,6.0,94,0.16,,,0.14,weatherlink.com 1.10,2013-05-10 12:17:00,
2013-05-10 07:32:00,61.6,60.0,29.85,ESE,107,0.0,2.0,95,0.13,,,0.14,weatherlink.com 1.10,2013-05-10 12:32:00,
2013-05-10 07:47:00,61.5,60.0,29.86,East,93,1.0,5.0,94,0.09,,,0.14,weatherlink.com 1.10,2013-05-10 12:47:00,
2013-05-10 08:02:00,61.7,60.0,29.86,ENE,74,0.0,5.0,95,0.02,,,0.14,weatherlink.com 1.10,2013-05-10 13:02:00,
2013-05-10 08:17:00,63.3,62.0,29.86,ESE,109,1.0,7.0,95,0.00,,,0.14,weatherlink.com 1.10,2013-05-10 13:17:00,
2013-05-10 08:32:00,64.3,62.0,29.87,SE,135,1.0,5.0,93,0.00,,,0.14,weatherlink.com 1.10,2013-05-10 13:32:00,
2013-05-10 08:47:00,65.4,63.0,29.87,ESE,111,2.0,6.0,91,0.00,,,0.14,weatherlink.com 1.10,2013-05-10 13:47:00,
2013-05-10 09:02:00,65.9,63.0,29.88,ESE,106,2.0,4.0,90,0.00,,,0.14,weatherlink.com 1.10,2013-05-10 14:02:00,
2013-05-10 09:17:00,66.2,63.0,29.88,East,86,0.0,7.0,89,0.00,,,0.14,weatherlink.com 1.10,2013-05-10 14:17:00,
2013-05-10 09:33:00,67.6,63.0,29.88,East,85,0.0,6.0,86,0.00,,,0.14,weatherlink.com 1.10,2013-05-10 14:33:00,
2013-05-10 09:48:00,67.8,63.0,29.88,East,85,0.0,3.0,85,0.00,,,0.14,weatherlink.com 1.10,2013-05-10 14:48:00,
2013-05-10 10:03:00,68.3,64.0,29.88,East,85,0.0,2.0,86,0.00,,,0.14,weatherlink.com 1.10,2013-05-10 15:03:00,
2013-05-10 10:18:00,69.0,64.0,29.87,East,85,1.0,3.0,85,0.00,,,0.14,weatherlink.com 1.10,2013-05-10 15:18:00,
2013-05-10 10:33:00,68.9,64.0,29.88,East,85,2.0,3.0,83,0.00,,,0.14,weatherlink.com 1.10,2013-05-10 15:33:00,
2013-05-10 10:48:00,68.8,64.0,29.89,East,85,2.0,3.0,85,0.00,,,0.14,weatherlink.com 1.10,2013-05-10 15:48:00,
2013-05-10 11:03:00,68.9,64.0,29.89,East,85,1.0,1.0,84,0.00,,,0.14,weatherlink.com 1.10,2013-05-10 16:03:00,
2013-05-10 11:18:00,69.1,65.0,29.87,NNE,19,5.0,7.0,85,0.00,,,0.14,weatherlink.com 1.10,2013-05-10 16:18:00,
2013-05-10 11:33:00,69.7,64.0,29.89,North,5,0.0,5.0,82,0.00,,,0.14,weatherlink.com 1.10,2013-05-10 16:33:00,
2013-05-10 11:48:00,70.4,65.0,29.88,North,360,3.0,4.0,83,0.00,,,0.14,weatherlink.com 1.10,2013-05-10 16:48:00,
2013-05-10 12:03:00,71.7,65.0,29.89,North,360,2.0,4.0,79,0.00,,,0.14,weatherlink.com 1.10,2013-05-10 17:03:00,
2013-05-10 12:18:00,72.0,64.0,29.89,NE,40,1.0,6.0,77,0.00,,,0.14,weatherlink.com 1.10,2013-05-10 17:18:00,
2013-05-10 12:33:00,72.4,65.0,29.90,NNE,18,2.0,5.0,78,0.00,,,0.14,weatherlink.com 1.10,2013-05-10 17:33:00,
2013-05-10 12:48:00,73.2,66.0,29.90,North,355,2.0,8.0,77,0.00,,,0.14,weatherlink.com 1.10,2013-05-10 17:48:00,
2013-05-10 13:03:00,74.4,66.0,29.88,NNE,19,0.0,7.0,74,0.00,,,0.14,weatherlink.com 1.10,2013-05-10 18:03:00,
2013-05-10 13:18:00,74.8,65.0,29.87,NE,42,5.0,7.0,72,0.00,,,0.14,weatherlink.com 1.10,2013-05-10 18:18:00,
2013-05-10 13:33:00,75.5,64.0,29.87,NNE,27,4.0,7.0,68,0.00,,,0.14,weatherlink.com 1.10,2013-05-10 18:33:00,
2013-05-10 13:48:00,75.9,65.0,29.86,NNE,15,1.0,5.0,70,0.00,,,0.14,weatherlink.com 1.10,2013-05-10 18:48:00,
2013-05-10 14:03:00,77.0,64.0,29.85,NNE,20,4.0,8.0,64,0.00,,,0.14,weatherlink.com 1.10,2013-05-10 19:03:00,
2013-05-10 14:18:00,78.0,65.0,29.85,NNE,31,4.0,6.0,64,0.00,,,0.14,weatherlink.com 1.10,2013-05-10 19:18:00,
2013-05-10 14:33:00,78.8,65.0,29.83,ENE,74,7.0,7.0,62,0.00,,,0.14,weatherlink.com 1.10,2013-05-10 19:33:00,
2013-05-10 14:48:00,79.8,64.0,29.82,NE,53,2.0,7.0,58,0.00,,,0.14,weatherlink.com 1.10,2013-05-10 19:48:00,
2013-05-10 15:03:00,80.2,64.0,29.83,NNE,15,5.0,6.0,59,0.00,,,0.14,weatherlink.com 1.10,2013-05-10 20:03:00,
2013-05-10 15:19:00,80.8,64.0,29.82,East,95,0.0,8.0,56,0.00,,,0.14,weatherlink.com 1.10,2013-05-10 20:19:00,
2013-05-10 15:34:00,81.2,62.0,29.82,NE,34,0.0,7.0,52,0.00,,,0.14,weatherlink.com 1.10,2013-05-10 20:34:00,
2013-05-10 15:49:00,81.2,63.0,29.82,East,98,2.0,6.0,55,0.00,,,0.14,weatherlink.com 1.10,2013-05-10 20:49:00,
2013-05-10 16:04:00,81.6,63.0,29.82,NE,37,1.0,7.0,54,0.00,,,0.14,weatherlink.com 1.10,2013-05-10 21:04:00,
2013-05-10 16:19:00,82.0,62.0,29.81,ESE,102,0.0,7.0,51,0.00,,,0.14,weatherlink.com 1.10,2013-05-10 21:19:00,
2013-05-10 16:34:00,81.7,62.0,29.81,ESE,113,0.0,5.0,51,0.00,,,0.14,weatherlink.com 1.10,2013-05-10 21:34:00,
2013-05-10 16:49:00,81.3,64.0,29.82,ESE,113,1.0,2.0,55,0.00,,,0.14,weatherlink.com 1.10,2013-05-10 21:49:00,
2013-05-10 17:04:00,81.0,63.0,29.80,NNE,21,3.0,5.0,55,0.00,,,0.14,weatherlink.com 1.10,2013-05-10 22:04:00,
2013-05-10 17:19:00,80.7,63.0,29.79,NNE,21,1.0,2.0,55,0.00,,,0.14,weatherlink.com 1.10,2013-05-10 22:19:00,
2013-05-10 17:34:00,80.0,64.0,29.80,NE,55,3.0,6.0,58,0.00,,,0.14,weatherlink.com 1.10,2013-05-10 22:34:00,
2013-05-10 17:49:00,79.7,64.0,29.81,NNE,32,4.0,5.0,58,0.00,,,0.14,weatherlink.com 1.10,2013-05-10 22:49:00,
2013-05-10 18:04:00,79.2,64.0,29.82,NNE,32,2.0,5.0,59,0.00,,,0.14,weatherlink.com 1.10,2013-05-10 23:04:00,
2013-05-10 18:19:00,71.3,60.0,29.86,NNE,13,12.0,24.0,68,0.00,,,0.14,weatherlink.com 1.10,2013-05-10 23:19:00,
2013-05-10 18:34:00,66.2,60.0,29.86,North,355,17.0,23.0,79,0.00,,,0.14,weatherlink.com 1.10,2013-05-10 23:34:00,
2013-05-10 18:49:00,65.2,60.0,29.89,NE,42,5.0,13.0,82,0.00,,,0.14,weatherlink.com 1.10,2013-05-10 23:49:00,
2013-05-10 19:04:00,64.0,60.0,29.90,NNE,28,7.0,13.0,87,0.03,,,0.17,weatherlink.com 1.10,2013-05-11 00:04:00,
2013-05-10 19:19:00,64.2,61.0,29.91,NNE,30,1.0,7.0,88,0.03,,,0.17,weatherlink.com 1.10,2013-05-11 00:19:00,
2013-05-10 19:34:00,64.6,61.0,29.90,NNE,33,4.0,7.0,88,0.03,,,0.17,weatherlink.com 1.10,2013-05-11 00:34:00,
2013-05-10 19:49:00,65.0,61.0,29.91,NE,43,0.0,6.0,87,0.03,,,0.17,weatherlink.com 1.10,2013-05-11 00:49:00,
2013-05-10 20:04:00,65.0,61.0,29.93,ESE,116,0.0,3.0,87,0.00,,,0.17,weatherlink.com 1.10,2013-05-11 01:04:00,
2013-05-10 20:19:00,64.8,61.0,29.92,ESE,115,1.0,3.0,87,0.00,,,0.17,weatherlink.com 1.10,2013-05-11 01:19:00,
2013-05-10 20:34:00,64.3,61.0,29.94,ESE,115,0.0,0.0,88,0.00,,,0.17,weatherlink.com 1.10,2013-05-11 01:34:00,
2013-05-10 20:49:00,63.9,61.0,29.95,ESE,115,0.0,0.0,89,0.00,,,0.17,weatherlink.com 1.10,2013-05-11 01:49:00,
2013-05-10 21:04:00,63.5,61.0,29.95,ESE,116,0.0,3.0,90,0.00,,,0.17,weatherlink.com 1.10,2013-05-11 02:04:00,
2013-05-10 21:19:00,63.1,60.0,29.96,ESE,115,0.0,1.0,90,0.00,,,0.17,weatherlink.com 1.10,2013-05-11 02:19:00,
2013-05-10 21:34:00,63.0,60.0,29.95,ESE,110,3.0,5.0,90,0.00,,,0.17,weatherlink.com 1.10,2013-05-11 02:34:00,
2013-05-10 21:49:00,63.0,60.0,29.95,ESE,109,0.0,4.0,90,0.00,,,0.17,weatherlink.com 1.10,2013-05-11 02:49:00,
2013-05-10 22:04:00,62.6,60.0,29.95,ESE,109,0.0,1.0,91,0.00,,,0.17,weatherlink.com 1.10,2013-05-11 03:04:00,
2013-05-10 22:19:00,62.2,60.0,29.97,ESE,109,0.0,0.0,91,0.00,,,0.17,weatherlink.com 1.10,2013-05-11 03:19:00,
2013-05-10 22:34:00,61.8,60.0,29.96,ESE,109,0.0,0.0,92,0.00,,,0.17,weatherlink.com 1.10,2013-05-11 03:34:00,
2013-05-10 22:49:00,61.2,59.0,29.97,ESE,109,0.0,0.0,92,0.00,,,0.17,weatherlink.com 1.10,2013-05-11 03:49:00,
2013-05-10 23:04:00,60.9,59.0,29.97,ESE,109,0.0,0.0,93,0.00,,,0.17,weatherlink.com 1.10,2013-05-11 04:04:00,
2013-05-10 23:19:00,60.8,59.0,29.96,ESE,109,0.0,1.0,94,0.00,,,0.17,weatherlink.com 1.10,2013-05-11 04:19:00,
2013-05-10 23:34:00,60.6,59.0,29.96,ESE,109,0.0,0.0,94,0.00,,,0.17,weatherlink.com 1.10,2013-05-11 04:34:00,
2013-05-10 23:49:00,60.7,59.0,29.98,ESE,109,0.0,1.0,94,0.00,,,0.17,weatherlink.com 1.10,2013-05-11 04:49:00,